20060223,000004,1647296,36.656200,-121.938200,NaN,11.520,33.460,37.970,  NaN,NaN,0.940, NaN, NaN,12.900, NaN,   NaN,12.30,1020.28,77.00,NaN,296.0,NaN,7.7,NaN,331.4,NaN,15.1,NaN,NaN,0.940,NaN,78.0,NaN,NaN,NaN,2,10.3,000000,   NaN,73.3,     NaN,      NaN,NaN,12.8,NaN, NaN,0.308,NaN,NaN, NaN, NaN
20060223,000034,1647326,36.656500,-121.936500,NaN,11.500,33.480,37.980,  NaN,NaN,1.039, NaN, NaN,12.900, NaN,   NaN,12.30,1020.24,77.20,NaN,294.0,NaN,7.4,NaN,326.8,NaN,14.5,NaN,NaN,1.039,NaN,78.0,NaN,NaN,NaN,2,10.3,000030,   NaN,73.3,     NaN,      NaN,NaN,13.2,NaN, NaN,0.329,NaN,NaN, NaN, NaN
20060223,000104,1647356,36.656800,-121.934700,NaN,11.490,33.480,37.970,  NaN,NaN,1.142, NaN, NaN,12.900, NaN,   NaN,12.30,1020.21,76.90,NaN,295.0,NaN,7.8,NaN,329.9,NaN,15.1,NaN,NaN,1.142,NaN,79.0,NaN,NaN,NaN,2,10.5,000100,   NaN,74.0,     NaN,      NaN,NaN,13.2,NaN, NaN,0.331,NaN,NaN, NaN, NaN
20060223,000134,1647386,36.657200,-121.933000,NaN,11.510,33.470,37.970,  NaN,NaN,1.191, NaN, NaN,12.900, NaN,   NaN,12.30,1020.22,76.60,NaN,297.0,NaN,6.8,NaN,326.3,NaN,13.2,NaN,NaN,1.191,NaN,78.0,NaN,NaN,NaN,2,10.2,000130,   NaN,72.8,     NaN,      NaN,NaN,12.8,NaN, NaN,0.331,NaN,NaN, NaN, NaN
20060223,000204,1647416,36.657500,-121.931200,NaN,11.500,33.480,37.970,  NaN,NaN,1.139, NaN, NaN,12.900, NaN,   NaN,12.30,1020.28,77.00,NaN,291.0,NaN,8.0,NaN,326.5,NaN,15.6,NaN,NaN,1.139,NaN,77.0,NaN,NaN,NaN,2,10.4,000200,   NaN,74.2,     NaN,      NaN,NaN,13.0,NaN, NaN,0.345,NaN,NaN, NaN, NaN
20060223,000234,1647446,36.657800,-121.929500,NaN,11.490,33.490,37.970,  NaN,NaN,1.084, NaN, NaN,12.900, NaN,   NaN,12.30,1020.23,77.20,NaN,305.0,NaN,5.3,NaN,323.8,NaN,10.3,NaN,NaN,1.084,NaN,78.0,NaN,NaN,NaN,2,10.3,000230,   NaN,74.0,     NaN,      NaN,NaN,13.0,NaN, NaN,0.325,NaN,NaN, NaN, NaN
20060223,000304,1647476,36.658200,-121.927700,NaN,11.490,33.480,37.970,  NaN,NaN,1.034, NaN, NaN,12.900, NaN,   NaN,12.30,1020.27,76.90,NaN,290.0,NaN,8.4,NaN,327.6,NaN,16.4,NaN,NaN,1.034,NaN,77.0,NaN,NaN,NaN,2,10.5,000300,   NaN,74.6,     NaN,      NaN,NaN,13.3,NaN, NaN,0.321,NaN,NaN, NaN, NaN
20060223,000334,1647506,36.658500,-121.926000,NaN,11.470,33.500,37.960,  NaN,NaN,1.030, NaN, NaN,12.900, NaN,   NaN,12.30,1020.22,76.80,NaN,295.0,NaN,8.1,NaN,329.9,NaN,15.7,NaN,NaN,1.030,NaN,75.0,NaN,NaN,NaN,2,10.5,000330,   NaN,72.3,     NaN,      NaN,NaN,13.2,NaN, NaN,0.319,NaN,NaN, NaN, NaN
20060223,000404,1647536,36.658800,-121.924200,NaN,11.480,33.480,37.960,  NaN,NaN,1.044, NaN, NaN,12.900, NaN,   NaN,12.30,1020.24,76.90,NaN,296.0,NaN,6.3,NaN,322.1,NaN,12.2,NaN,NaN,1.044,NaN,76.0,NaN,NaN,NaN,2,10.3,000400,   NaN,75.3,     NaN,      NaN,NaN,13.5,NaN, NaN,0.321,NaN,NaN, NaN, NaN
20060223,000434,1647566,36.659200,-121.922500,NaN,11.490,33.480,37.960,  NaN,NaN,1.048, NaN, NaN,12.900, NaN,   NaN,12.30,1020.20,77.20,NaN,309.0,NaN,4.7,NaN,325.2,NaN,9.2,NaN,NaN,1.048,NaN,79.0,NaN,NaN,NaN,2,10.2,000430,   NaN,76.2,     NaN,      NaN,NaN,13.1,NaN, NaN,0.313,NaN,NaN, NaN, NaN
20060223,000504,1647596,36.659300,-121.920700,NaN,11.490,33.490,37.970,  NaN,NaN,0.999, NaN, NaN,12.900, NaN,   NaN,12.50,1020.25,77.40,NaN,297.0,NaN,7.0,NaN,331.1,NaN,13.6,NaN,NaN,0.999,NaN,80.0,NaN,NaN,NaN,2,10.3,000500,   NaN,76.6,     NaN,      NaN,NaN,13.2,NaN, NaN,0.310,NaN,NaN, NaN, NaN
20060223,000534,1647626,36.659700,-121.919000,NaN,11.470,33.500,37.960,  NaN,NaN,1.018, NaN, NaN,12.800, NaN,   NaN,12.50,1020.26,77.50,NaN,284.0,NaN,7.9,NaN,319.9,NaN,15.3,NaN,NaN,1.018,NaN,80.0,NaN,NaN,NaN,2,10.5,000530,   NaN,77.6,     NaN,      NaN,NaN,13.1,NaN, NaN,0.313,NaN,NaN, NaN, NaN
20060223,000604,1647656,36.660000,-121.917200,NaN,11.440,33.500,37.940,  NaN,NaN,1.114, NaN, NaN,12.800, NaN,   NaN,12.50,1020.22,77.30,NaN,295.0,NaN,6.1,NaN,318.6,NaN,11.9,NaN,NaN,1.114,NaN,81.0,NaN,NaN,NaN,2,10.5,000600,   NaN,77.0,     NaN,      NaN,NaN,13.3,NaN, NaN,0.318,NaN,NaN, NaN, NaN
20060223,000634,1647686,36.660200,-121.915300,NaN,11.430,33.500,37.930,  NaN,NaN,1.106, NaN, NaN,12.800, NaN,   NaN,12.50,1020.25,76.90,NaN,287.0,NaN,7.4,NaN,319.8,NaN,14.5,NaN,NaN,1.106,NaN,79.0,NaN,NaN,NaN,2,10.5,000630,   NaN,76.7,     NaN,      NaN,NaN,13.4,NaN, NaN,0.320,NaN,NaN, NaN, NaN
20060223,000704,1647716,36.660500,-121.913700,NaN,11.430,33.490,37.920,  NaN,NaN,1.090, NaN, NaN,12.800, NaN,   NaN,12.50,1020.18,76.90,NaN,296.0,NaN,6.3,NaN,324.5,NaN,12.2,NaN,NaN,1.090,NaN,77.0,NaN,NaN,NaN,2,10.3,000700,   NaN,77.6,     NaN,      NaN,NaN,13.1,NaN, NaN,0.321,NaN,NaN, NaN, NaN
20060223,000734,1647746,36.660800,-121.911800,NaN,11.470,33.470,37.930,  NaN,NaN,1.103, NaN, NaN,12.800, NaN,   NaN,12.50,1020.27,77.00,NaN,303.0,NaN,5.5,NaN,326.0,NaN,10.8,NaN,NaN,1.103,NaN,77.0,NaN,NaN,NaN,2,10.4,000730,   NaN,76.9,     NaN,      NaN,NaN,13.2,NaN, NaN,0.318,NaN,NaN, NaN, NaN
20060223,000804,1647776,36.661000,-121.910200,NaN,11.490,33.460,37.940,  NaN,NaN,1.084, NaN, NaN,12.800, NaN,   NaN,12.50,1020.28,77.30,NaN,285.0,NaN,8.3,NaN,323.4,NaN,16.1,NaN,NaN,1.084,NaN,79.0,NaN,NaN,NaN,2,10.6,000800,   NaN,77.8,     NaN,      NaN,NaN,13.0,NaN, NaN,0.334,NaN,NaN, NaN, NaN
20060223,000834,1647806,36.661300,-121.908300,NaN,11.510,33.470,37.970,  NaN,NaN,1.094, NaN, NaN,12.900, NaN,   NaN,12.50,1020.27,77.40,NaN,292.0,NaN,6.8,NaN,321.1,NaN,13.2,NaN,NaN,1.094,NaN,81.0,NaN,NaN,NaN,2,10.7,000830,   NaN,78.0,     NaN,      NaN,NaN,13.1,NaN, NaN,0.322,NaN,NaN, NaN, NaN
20060223,000904,1647836,36.661700,-121.906500,NaN,11.540,33.440,37.970,  NaN,NaN,1.033, NaN, NaN,12.900, NaN,   NaN,12.50,1020.24,77.00,NaN,281.0,NaN,8.4,NaN,315.6,NaN,16.3,NaN,NaN,1.033,NaN,78.0,NaN,NaN,NaN,2,10.7,000900,   NaN,74.6,     NaN,      NaN,NaN,12.9,NaN, NaN,0.312,NaN,NaN, NaN, NaN
20060223,000934,1647866,36.662000,-121.904700,NaN,11.500,33.490,37.980,  NaN,NaN,1.032, NaN, NaN,13.000, NaN,   NaN,12.50,1020.28,77.40,NaN,288.0,NaN,8.5,NaN,325.8,NaN,16.4,NaN,NaN,1.032,NaN,74.0,NaN,NaN,NaN,2,10.7,000930,   NaN,76.1,     NaN,      NaN,NaN,13.5,NaN, NaN,0.320,NaN,NaN, NaN, NaN
20060223,001004,1647896,36.662200,-121.903000,NaN,11.460,33.480,37.940,  NaN,NaN,1.022, NaN, NaN,12.900, NaN,   NaN,12.30,1020.21,76.40,NaN,256.0,NaN,7.3,NaN,314.6,NaN,14.3,NaN,NaN,1.022,NaN,94.0,NaN,NaN,NaN,2,10.2,001000,   NaN,102.6,     NaN,      NaN,NaN,13.2,NaN, NaN,0.352,NaN,NaN, NaN, NaN
20060223,001034,1647926,36.661500,-121.901500,NaN,11.460,33.470,37.930,  NaN,NaN,1.052, NaN, NaN,12.800, NaN,   NaN,12.20,1020.23,76.90,NaN,80.0,NaN,5.1,NaN,308.5,NaN,9.9,NaN,NaN,1.052,NaN,130.0,NaN,NaN,NaN,2,10.0,001030,   NaN,134.2,     NaN,      NaN,NaN,12.8,NaN, NaN,0.332,NaN,NaN, NaN, NaN
20060223,001104,1647956,36.660500,-121.900200,NaN,11.470,33.460,37.930,  NaN,NaN,0.958, NaN, NaN,12.900, NaN,   NaN,12.10,1020.24,77.40,NaN,144.0,NaN,7.4,NaN,308.8,NaN,14.4,NaN,NaN,0.958,NaN,141.0,NaN,NaN,NaN,2,10.3,001100,   NaN,140.0,     NaN,      NaN,NaN,13.1,NaN, NaN,0.315,NaN,NaN, NaN, NaN
20060223,001134,1647986,36.659300,-121.899200,NaN,11.470,33.470,37.930,  NaN,NaN,0.980, NaN, NaN,12.900, NaN,   NaN,12.00,1020.29,77.00,NaN,122.0,NaN,7.0,NaN,311.1,NaN,13.6,NaN,NaN,0.980,NaN,149.0,NaN,NaN,NaN,2,10.7,001130,   NaN,147.1,     NaN,      NaN,NaN,13.3,NaN, NaN,0.309,NaN,NaN, NaN, NaN
20060223,001204,1648016,36.658200,-121.898200,NaN,11.440,33.480,37.920,  NaN,NaN,1.050, NaN, NaN,12.900, NaN,   NaN,12.00,1020.26,78.30,NaN,120.0,NaN,6.4,NaN,310.5,NaN,12.5,NaN,NaN,1.050,NaN,144.0,NaN,NaN,NaN,2,10.8,001200,   NaN,142.1,     NaN,      NaN,NaN,13.0,NaN, NaN,0.406,NaN,NaN, NaN, NaN
20060223,001234,1648046,36.657000,-121.897200,NaN,11.420,33.490,37.910,  NaN,NaN,1.090, NaN, NaN,12.800, NaN,   NaN,12.00,1020.18,78.60,NaN,112.0,NaN,6.5,NaN,311.3,NaN,12.7,NaN,NaN,1.090,NaN,147.0,NaN,NaN,NaN,2,10.7,001230,   NaN,147.9,     NaN,      NaN,NaN,13.4,NaN, NaN,0.320,NaN,NaN, NaN, NaN
20060223,001304,1648076,36.655700,-121.896200,NaN,11.410,33.470,37.880,  NaN,NaN,1.166, NaN, NaN,12.900, NaN,   NaN,11.80,1020.21,77.70,NaN,124.0,NaN,7.5,NaN,304.6,NaN,14.6,NaN,NaN,1.166,NaN,145.0,NaN,NaN,NaN,2,10.7,001300,   NaN,143.2,     NaN,      NaN,NaN,13.3,NaN, NaN,0.328,NaN,NaN, NaN, NaN
20060223,001334,1648106,36.654500,-121.895200,NaN,11.430,33.450,37.880,  NaN,NaN,1.106, NaN, NaN,12.800, NaN,   NaN,11.80,1020.27,78.00,NaN,124.0,NaN,7.8,NaN,304.7,NaN,15.2,NaN,NaN,1.106,NaN,147.0,NaN,NaN,NaN,2,10.7,001330,   NaN,145.1,     NaN,      NaN,NaN,13.6,NaN, NaN,0.313,NaN,NaN, NaN, NaN
20060223,001404,1648136,36.653300,-121.894000,NaN,11.440,33.450,37.890,  NaN,NaN,1.044, NaN, NaN,12.800, NaN,   NaN,11.80,1020.21,78.30,NaN,122.0,NaN,7.3,NaN,309.2,NaN,14.1,NaN,NaN,1.044,NaN,146.0,NaN,NaN,NaN,2,10.9,001400,   NaN,146.2,     NaN,      NaN,NaN,13.3,NaN, NaN,0.311,NaN,NaN, NaN, NaN
20060223,001434,1648166,36.652000,-121.893000,NaN,11.410,33.460,37.870,  NaN,NaN,1.019, NaN, NaN,12.900, NaN,   NaN,11.80,1020.18,78.20,NaN,129.0,NaN,6.8,NaN,311.4,NaN,13.3,NaN,NaN,1.019,NaN,147.0,NaN,NaN,NaN,2,10.5,001430,   NaN,144.7,     NaN,      NaN,NaN,13.3,NaN, NaN,0.319,NaN,NaN, NaN, NaN
20060223,001504,1648196,36.650800,-121.892000,NaN,11.350,33.480,37.840,  NaN,NaN,1.018, NaN, NaN,12.800, NaN,   NaN,11.80,1020.24,77.50,NaN,130.0,NaN,7.8,NaN,307.1,NaN,15.1,NaN,NaN,1.018,NaN,147.0,NaN,NaN,NaN,2,10.6,001500,   NaN,144.5,     NaN,      NaN,NaN,13.5,NaN, NaN,0.299,NaN,NaN, NaN, NaN
20060223,001534,1648226,36.649500,-121.891000,NaN,11.400,33.440,37.840,  NaN,NaN,0.880, NaN, NaN,12.800, NaN,   NaN,11.80,1020.22,78.70,NaN,128.0,NaN,7.1,NaN,307.8,NaN,13.9,NaN,NaN,0.880,NaN,144.0,NaN,NaN,NaN,2,10.7,001530,   NaN,142.3,     NaN,      NaN,NaN,13.3,NaN, NaN,0.299,NaN,NaN, NaN, NaN
20060223,001604,1648256,36.648300,-121.890000,NaN,11.440,33.410,37.850,  NaN,NaN,0.857, NaN, NaN,12.800, NaN,   NaN,11.80,1020.29,78.20,NaN,124.0,NaN,7.5,NaN,309.4,NaN,14.5,NaN,NaN,0.857,NaN,147.0,NaN,NaN,NaN,2,10.8,001600,   NaN,147.4,     NaN,      NaN,NaN,13.5,NaN, NaN,0.275,NaN,NaN, NaN, NaN
20060223,001634,1648286,36.647200,-121.889000,NaN,11.420,33.450,37.870,  NaN,NaN,0.851, NaN, NaN,12.800, NaN,   NaN,11.80,1020.21,78.00,NaN,132.0,NaN,7.5,NaN,309.5,NaN,14.6,NaN,NaN,0.851,NaN,149.0,NaN,NaN,NaN,2,10.7,001630,   NaN,144.5,     NaN,      NaN,NaN,13.4,NaN, NaN,0.284,NaN,NaN, NaN, NaN
20060223,001704,1648316,36.645800,-121.888000,NaN,11.380,33.480,37.860,  NaN,NaN,0.882, NaN, NaN,12.800, NaN,   NaN,12.00,1020.26,79.10,NaN,115.0,NaN,6.6,NaN,306.6,NaN,12.8,NaN,NaN,0.882,NaN,145.0,NaN,NaN,NaN,2,10.6,001700,   NaN,142.7,     NaN,      NaN,NaN,13.5,NaN, NaN,0.283,NaN,NaN, NaN, NaN
20060223,001734,1648346,36.644700,-121.886800,NaN,11.370,33.480,37.850,  NaN,NaN,0.887, NaN, NaN,12.800, NaN,   NaN,12.00,1020.22,78.80,NaN,94.0,NaN,6.1,NaN,305.1,NaN,11.9,NaN,NaN,0.887,NaN,146.0,NaN,NaN,NaN,2,10.8,001730,   NaN,145.8,     NaN,      NaN,NaN,13.5,NaN, NaN,0.284,NaN,NaN, NaN, NaN
20060223,001804,1648376,36.643500,-121.885800,NaN,11.380,33.460,37.850,  NaN,NaN,0.854, NaN, NaN,12.800, NaN,   NaN,11.80,1020.23,78.70,NaN,100.0,NaN,6.6,NaN,300.9,NaN,12.8,NaN,NaN,0.854,NaN,147.0,NaN,NaN,NaN,2,10.9,001800,   NaN,143.9,     NaN,      NaN,NaN,13.2,NaN, NaN,0.274,NaN,NaN, NaN, NaN
20060223,001834,1648406,36.642300,-121.885000,NaN,11.470,33.420,37.890,  NaN,NaN,0.843, NaN, NaN,12.900, NaN,   NaN,12.00,1020.22,79.50,NaN,125.0,NaN,7.0,NaN,298.2,NaN,13.6,NaN,NaN,0.843,NaN,143.0,NaN,NaN,NaN,2,8.7,001830,   NaN,141.7,     NaN,      NaN,NaN,11.7,NaN, NaN,0.269,NaN,NaN, NaN, NaN
20060223,001904,1648436,36.641500,-121.884200,NaN,11.530,33.440,37.970,  NaN,NaN,0.899, NaN, NaN,12.900, NaN,   NaN,11.80,1020.30,79.10,NaN,150.0,NaN,7.1,NaN,307.9,NaN,13.8,NaN,NaN,0.899,NaN,143.0,NaN,NaN,NaN,2,7.4,001900,   NaN,142.4,     NaN,      NaN,NaN,10.2,NaN, NaN,0.278,NaN,NaN, NaN, NaN
20060223,001934,1648466,36.640700,-121.883500,NaN,11.570,33.460,38.010,  NaN,NaN,0.955, NaN, NaN,13.000, NaN,   NaN,11.80,1020.27,79.70,NaN,119.0,NaN,5.0,NaN,300.3,NaN,9.8,NaN,NaN,0.955,NaN,147.0,NaN,NaN,NaN,2,6.4,001930,   NaN,146.3,     NaN,      NaN,NaN,9.2,NaN, NaN,0.280,NaN,NaN, NaN, NaN
20060223,002004,1648496,36.640000,-121.883000,NaN,11.580,33.480,38.050,  NaN,NaN,0.996, NaN, NaN,13.000, NaN,   NaN,11.80,1020.23,79.70,NaN,137.0,NaN,6.6,NaN,304.1,NaN,12.8,NaN,NaN,0.996,NaN,150.0,NaN,NaN,NaN,2,5.6,002000,   NaN,149.7,     NaN,      NaN,NaN,7.9,NaN, NaN,0.275,NaN,NaN, NaN, NaN
20060223,002034,1648526,36.639500,-121.882500,NaN,11.590,33.480,38.050,  NaN,NaN,1.022, NaN, NaN,13.000, NaN,   NaN,11.80,1020.29,79.60,NaN,143.0,NaN,6.8,NaN,306.6,NaN,13.1,NaN,NaN,1.022,NaN,153.0,NaN,NaN,NaN,2,5.2,002030,   NaN,149.8,     NaN,      NaN,NaN,7.4,NaN, NaN,0.289,NaN,NaN, NaN, NaN
20060223,002104,1648556,36.638800,-121.882200,NaN,11.570,33.490,38.040,  NaN,NaN,0.984, NaN, NaN,12.900, NaN,   NaN,11.70,1020.33,79.60,NaN,147.0,NaN,7.4,NaN,305.7,NaN,14.4,NaN,NaN,0.984,NaN,152.0,NaN,NaN,NaN,2,4.9,002100,   NaN,148.0,     NaN,      NaN,NaN,6.8,NaN, NaN,0.286,NaN,NaN, NaN, NaN
20060223,002134,1648586,36.638300,-121.881700,NaN,11.550,33.490,38.020,  NaN,NaN,1.053, NaN, NaN,13.000, NaN,   NaN,11.70,1020.19,79.70,NaN,139.0,NaN,6.9,NaN,297.6,NaN,13.3,NaN,NaN,1.053,NaN,148.0,NaN,NaN,NaN,2,4.5,002130,   NaN,145.8,     NaN,      NaN,NaN,6.5,NaN, NaN,0.280,NaN,NaN, NaN, NaN
20060223,002204,1648616,36.637800,-121.881300,NaN,11.550,33.480,38.020,  NaN,NaN,1.036, NaN, NaN,13.000, NaN,   NaN,11.60,1020.25,79.60,NaN,146.0,NaN,6.4,NaN,301.0,NaN,12.4,NaN,NaN,1.036,NaN,146.0,NaN,NaN,NaN,2,4.6,002200,   NaN,143.0,     NaN,      NaN,NaN,6.4,NaN, NaN,0.280,NaN,NaN, NaN, NaN
20060223,002234,1648646,36.637300,-121.880800,NaN,11.540,33.480,38.010,  NaN,NaN,0.996, NaN, NaN,13.000, NaN,   NaN,11.60,1020.31,79.70,NaN,140.0,NaN,5.5,NaN,296.6,NaN,10.7,NaN,NaN,0.996,NaN,144.0,NaN,NaN,NaN,2,4.5,002230,   NaN,141.0,     NaN,      NaN,NaN,6.2,NaN, NaN,0.277,NaN,NaN, NaN, NaN
20060223,002304,1648676,36.636800,-121.880300,NaN,11.540,33.480,38.010,  NaN,NaN,0.979, NaN, NaN,13.000, NaN,   NaN,11.70,1020.23,80.50,NaN,146.0,NaN,5.5,NaN,298.4,NaN,10.7,NaN,NaN,0.979,NaN,141.0,NaN,NaN,NaN,2,4.0,002300,   NaN,140.3,     NaN,      NaN,NaN,5.8,NaN, NaN,0.300,NaN,NaN, NaN, NaN
20060223,002334,1648706,36.636500,-121.880000,NaN,11.560,33.470,38.020,  NaN,NaN,0.958, NaN, NaN,13.000, NaN,   NaN,11.60,1020.33,79.80,NaN,155.0,NaN,5.8,NaN,304.0,NaN,11.4,NaN,NaN,0.958,NaN,141.0,NaN,NaN,NaN,2,3.8,002330,   NaN,140.9,     NaN,      NaN,NaN,5.5,NaN, NaN,0.282,NaN,NaN, NaN, NaN
20060223,002404,1648736,36.636000,-121.879700,NaN,11.580,33.470,38.030,  NaN,NaN,2.025, NaN, NaN,13.000, NaN,   NaN,11.70,1020.30,79.80,NaN,163.0,NaN,5.6,NaN,311.5,NaN,10.9,NaN,NaN,2.025,NaN,144.0,NaN,NaN,NaN,2,3.6,002400,   NaN,143.0,     NaN,      NaN,NaN,5.1,NaN, NaN,6.065,NaN,NaN, NaN, NaN
20060223,002434,1648766,36.635700,-121.879300,NaN,11.590,33.470,38.050,  NaN,NaN,0.868, NaN, NaN,13.000, NaN,   NaN,11.70,1020.31,80.20,NaN,133.0,NaN,4.8,NaN,294.7,NaN,9.3,NaN,NaN,0.868,NaN,147.0,NaN,NaN,NaN,2,3.4,002430,   NaN,146.1,     NaN,      NaN,NaN,5.0,NaN, NaN,0.276,NaN,NaN, NaN, NaN
20060223,002504,1648796,36.635200,-121.879000,NaN,11.610,33.470,38.060,  NaN,NaN,0.880, NaN, NaN,13.000, NaN,   NaN,11.70,1020.23,80.20,NaN,143.0,NaN,5.3,NaN,304.0,NaN,10.2,NaN,NaN,0.880,NaN,152.0,NaN,NaN,NaN,2,3.3,002500,   NaN,149.8,     NaN,      NaN,NaN,4.9,NaN, NaN,0.575,NaN,NaN, NaN, NaN
20060223,002534,1648826,36.634800,-121.878700,NaN,11.630,33.470,38.080,  NaN,NaN,0.876, NaN, NaN,13.000, NaN,   NaN,11.70,1020.38,80.20,NaN,140.0,NaN,5.4,NaN,303.2,NaN,10.4,NaN,NaN,0.876,NaN,156.0,NaN,NaN,NaN,2,3.4,002530,   NaN,151.1,     NaN,      NaN,NaN,4.8,NaN, NaN,0.274,NaN,NaN, NaN, NaN
20060223,002604,1648856,36.634500,-121.878500,NaN,11.650,33.470,38.100,  NaN,NaN,0.845, NaN, NaN,13.100, NaN,   NaN,11.70,1020.35,80.60,NaN,130.0,NaN,5.0,NaN,284.1,NaN,9.7,NaN,NaN,0.845,NaN,151.0,NaN,NaN,NaN,2,3.1,002600,   NaN,139.7,     NaN,      NaN,NaN,4.5,NaN, NaN,0.274,NaN,NaN, NaN, NaN
20060223,002634,1648886,36.634200,-121.878200,NaN,11.660,33.470,38.110,  NaN,NaN,0.877, NaN, NaN,13.100, NaN,   NaN,11.70,1020.29,80.30,NaN,160.0,NaN,4.0,NaN,269.3,NaN,7.7,NaN,NaN,0.877,NaN,125.0,NaN,NaN,NaN,2,2.4,002630,   NaN,102.9,     NaN,      NaN,NaN,3.0,NaN, NaN,0.280,NaN,NaN, NaN, NaN
20060223,002704,1648916,36.634200,-121.877800,NaN,11.660,33.470,38.110,  NaN,NaN,0.861, NaN, NaN,13.100, NaN,   NaN,11.80,1020.25,80.90,NaN,224.0,NaN,3.6,NaN,278.1,NaN,6.9,NaN,NaN,0.861,NaN,96.0,NaN,NaN,NaN,2,1.7,002700,   NaN,63.8,     NaN,      NaN,NaN,2.1,NaN, NaN,0.273,NaN,NaN, NaN, NaN
20060223,002734,1648946,36.634200,-121.877700,NaN,11.660,33.470,38.120,  NaN,NaN,0.881, NaN, NaN,13.100, NaN,   NaN,11.80,1020.30,80.70,NaN,261.0,NaN,4.0,NaN,289.0,NaN,7.7,NaN,NaN,0.881,NaN,59.0,NaN,NaN,NaN,2,1.2,002730,   NaN,36.7,     NaN,      NaN,NaN,1.9,NaN, NaN,0.275,NaN,NaN, NaN, NaN
20060223,002804,1648976,36.634300,-121.877500,NaN,11.660,33.470,38.120,  NaN,NaN,0.883, NaN, NaN,13.100, NaN,   NaN,12.00,1020.26,81.20,NaN,270.0,NaN,4.2,NaN,290.0,NaN,8.2,NaN,NaN,0.883,NaN,48.0,NaN,NaN,NaN,2,1.2,002800,   NaN,28.4,     NaN,      NaN,NaN,1.8,NaN, NaN,0.282,NaN,NaN, NaN, NaN
20060223,002834,1649006,36.634500,-121.877300,NaN,11.670,33.470,38.120,  NaN,NaN,0.911, NaN, NaN,13.100, NaN,   NaN,12.00,1020.31,81.10,NaN,292.0,NaN,4.2,NaN,308.1,NaN,8.2,NaN,NaN,0.911,NaN,38.0,NaN,NaN,NaN,2,1.4,002830,   NaN,25.2,     NaN,      NaN,NaN,2.1,NaN, NaN,0.280,NaN,NaN, NaN, NaN
20060223,002904,1649036,36.634500,-121.877200,NaN,11.680,33.470,38.130,  NaN,NaN,0.860, NaN, NaN,13.100, NaN,   NaN,12.10,1020.27,80.50,NaN,286.0,NaN,2.9,NaN,293.6,NaN,5.7,NaN,NaN,0.860,NaN,46.0,NaN,NaN,NaN,2,1.5,002900,   NaN,22.3,     NaN,      NaN,NaN,2.3,NaN, NaN,0.274,NaN,NaN, NaN, NaN
20060223,002934,1649066,36.634700,-121.877000,NaN,11.680,33.470,38.130,  NaN,NaN,0.893, NaN, NaN,13.100, NaN,   NaN,12.10,1020.32,80.20,NaN,296.0,NaN,4.4,NaN,306.4,NaN,8.6,NaN,NaN,0.893,NaN,38.0,NaN,NaN,NaN,2,1.5,002930,   NaN,19.5,     NaN,      NaN,NaN,2.4,NaN, NaN,0.272,NaN,NaN, NaN, NaN
20060223,003004,1649096,36.635000,-121.876800,NaN,11.690,33.470,38.140,  NaN,NaN,0.893, NaN, NaN,13.100, NaN,   NaN,12.20,1020.32,80.70,NaN,302.0,NaN,2.8,NaN,306.3,NaN,5.4,NaN,NaN,0.893,NaN,30.0,NaN,NaN,NaN,2,1.6,003000,   NaN,18.8,     NaN,      NaN,NaN,2.6,NaN, NaN,0.271,NaN,NaN, NaN, NaN
20060223,003034,1649126,36.635200,-121.876700,NaN,11.680,33.470,38.140,  NaN,NaN,0.858, NaN, NaN,13.100, NaN,   NaN,12.20,1020.33,80.50,NaN,296.0,NaN,3.9,NaN,304.9,NaN,7.5,NaN,NaN,0.858,NaN,32.0,NaN,NaN,NaN,2,1.7,003030,   NaN,20.6,     NaN,      NaN,NaN,2.8,NaN, NaN,0.272,NaN,NaN, NaN, NaN
20060223,003104,1649156,36.635300,-121.876500,NaN,11.690,33.470,38.140,  NaN,NaN,0.897, NaN, NaN,13.200, NaN,   NaN,12.30,1020.32,80.20,NaN,292.0,NaN,3.8,NaN,303.5,NaN,7.3,NaN,NaN,0.897,NaN,29.0,NaN,NaN,NaN,2,1.8,003100,   NaN,24.7,     NaN,      NaN,NaN,2.8,NaN, NaN,0.273,NaN,NaN, NaN, NaN
20060223,003134,1649186,36.635700,-121.876300,NaN,11.690,33.470,38.140,  NaN,NaN,0.882, NaN, NaN,13.100, NaN,   NaN,12.30,1020.37,80.50,NaN,289.0,NaN,3.6,NaN,302.0,NaN,7.0,NaN,NaN,0.882,NaN,38.0,NaN,NaN,NaN,2,1.9,003130,   NaN,27.8,     NaN,      NaN,NaN,2.7,NaN, NaN,1.006,NaN,NaN, NaN, NaN
20060223,003204,1649216,36.635800,-121.876200,NaN,11.700,33.470,38.150,  NaN,NaN,0.853, NaN, NaN,13.100, NaN,   NaN,12.30,1020.32,80.00,NaN,284.0,NaN,4.6,NaN,302.0,NaN,9.0,NaN,NaN,0.853,NaN,46.0,NaN,NaN,NaN,2,2.0,003200,   NaN,30.4,     NaN,      NaN,NaN,2.9,NaN, NaN,0.274,NaN,NaN, NaN, NaN
20060223,003234,1649246,36.636000,-121.876000,NaN,11.700,33.470,38.150,  NaN,NaN,0.841, NaN, NaN,13.100, NaN,   NaN,12.30,1020.28,80.00,NaN,296.0,NaN,3.8,NaN,313.1,NaN,7.4,NaN,NaN,0.841,NaN,42.0,NaN,NaN,NaN,2,2.0,003230,   NaN,31.1,     NaN,      NaN,NaN,2.7,NaN, NaN,0.284,NaN,NaN, NaN, NaN
20060223,003304,1649276,36.636300,-121.875700,NaN,11.710,33.470,38.150,  NaN,NaN,0.857, NaN, NaN,13.100, NaN,   NaN,12.30,1020.36,80.00,NaN,288.0,NaN,5.1,NaN,306.2,NaN,9.9,NaN,NaN,0.857,NaN,49.0,NaN,NaN,NaN,2,2.1,003300,   NaN,29.9,     NaN,      NaN,NaN,3.0,NaN, NaN,0.268,NaN,NaN, NaN, NaN
20060223,003334,1649306,36.636500,-121.875500,NaN,11.710,33.470,38.160,  NaN,NaN,0.839, NaN, NaN,13.100, NaN,   NaN,12.30,1020.27,79.50,NaN,297.0,NaN,3.8,NaN,308.8,NaN,7.4,NaN,NaN,0.839,NaN,37.0,NaN,NaN,NaN,2,2.0,003330,   NaN,25.7,     NaN,      NaN,NaN,2.9,NaN, NaN,0.284,NaN,NaN, NaN, NaN
20060223,003404,1649336,36.636700,-121.875300,NaN,11.710,33.470,38.160,  NaN,NaN,0.881, NaN, NaN,13.100, NaN,   NaN,12.30,1020.25,79.30,NaN,285.0,NaN,3.5,NaN,291.5,NaN,6.9,NaN,NaN,0.881,NaN,41.0,NaN,NaN,NaN,2,2.0,003400,   NaN,22.9,     NaN,      NaN,NaN,2.9,NaN, NaN,0.272,NaN,NaN, NaN, NaN
20060223,003434,1649366,36.637000,-121.875200,NaN,11.700,33.470,38.160,  NaN,NaN,0.858, NaN, NaN,13.100, NaN,   NaN,12.30,1020.34,79.60,NaN,303.0,NaN,3.5,NaN,308.8,NaN,6.7,NaN,NaN,0.858,NaN,39.0,NaN,NaN,NaN,2,2.0,003430,   NaN,20.2,     NaN,      NaN,NaN,3.0,NaN, NaN,0.271,NaN,NaN, NaN, NaN
20060223,003504,1649396,36.637200,-121.875000,NaN,11.700,33.470,38.150,  NaN,NaN,0.862, NaN, NaN,13.100, NaN,   NaN,12.30,1020.31,79.60,NaN,290.0,NaN,4.5,NaN,301.0,NaN,8.8,NaN,NaN,0.862,NaN,36.0,NaN,NaN,NaN,2,2.0,003500,   NaN,23.4,     NaN,      NaN,NaN,3.0,NaN, NaN,0.271,NaN,NaN, NaN, NaN
20060223,003534,1649426,36.637500,-121.874700,NaN,11.700,33.470,38.150,  NaN,NaN,0.868, NaN, NaN,13.200, NaN,   NaN,12.30,1020.31,80.00,NaN,279.0,NaN,3.6,NaN,311.0,NaN,6.9,NaN,NaN,0.868,NaN,53.0,NaN,NaN,NaN,2,2.2,003530,   NaN,50.5,     NaN,      NaN,NaN,3.3,NaN, NaN,0.272,NaN,NaN, NaN, NaN
20060223,003604,1649456,36.637500,-121.874300,NaN,11.700,33.470,38.150,  NaN,NaN,0.866, NaN, NaN,13.100, NaN,   NaN,12.30,1020.28,79.20,NaN,224.0,NaN,4.1,NaN,299.6,NaN,8.0,NaN,NaN,0.866,NaN,83.0,NaN,NaN,NaN,2,2.1,003600,   NaN,86.2,     NaN,      NaN,NaN,2.9,NaN, NaN,0.269,NaN,NaN, NaN, NaN
20060223,003634,1649486,36.637500,-121.874000,NaN,11.700,33.470,38.150,  NaN,NaN,0.876, NaN, NaN,13.200, NaN,   NaN,12.30,1020.29,79.50,NaN,188.0,NaN,4.9,NaN,310.8,NaN,9.6,NaN,NaN,0.876,NaN,118.0,NaN,NaN,NaN,2,2.0,003630,   NaN,124.8,     NaN,      NaN,NaN,2.5,NaN, NaN,0.271,NaN,NaN, NaN, NaN
20060223,003704,1649516,36.637300,-121.873800,NaN,11.700,33.470,38.140,  NaN,NaN,0.887, NaN, NaN,13.100, NaN,   NaN,12.30,1020.29,79.10,NaN,159.0,NaN,5.8,NaN,321.0,NaN,11.2,NaN,NaN,0.887,NaN,146.0,NaN,NaN,NaN,2,1.7,003700,   NaN,159.2,     NaN,      NaN,NaN,2.1,NaN, NaN,0.272,NaN,NaN, NaN, NaN
20060223,003734,1649546,36.637200,-121.873800,NaN,11.690,33.470,38.140,  NaN,NaN,0.896, NaN, NaN,13.200, NaN,   NaN,12.10,1020.29,78.30,NaN,120.0,NaN,4.0,NaN,306.8,NaN,7.8,NaN,NaN,0.896,NaN,157.0,NaN,NaN,NaN,2,1.6,003730,   NaN,176.8,     NaN,      NaN,NaN,2.1,NaN, NaN,0.269,NaN,NaN, NaN, NaN
20060223,003804,1649576,36.637000,-121.873700,NaN,11.680,33.470,38.140,  NaN,NaN,0.882, NaN, NaN,13.100, NaN,   NaN,12.00,1020.27,79.20,NaN,104.0,NaN,3.3,NaN,301.0,NaN,6.5,NaN,NaN,0.882,NaN,166.0,NaN,NaN,NaN,2,1.6,003800,   NaN,183.2,     NaN,      NaN,NaN,2.1,NaN, NaN,0.272,NaN,NaN, NaN, NaN
20060223,003834,1649606,36.636800,-121.873700,NaN,11.670,33.480,38.130,  NaN,NaN,0.899, NaN, NaN,13.200, NaN,   NaN,12.00,1020.23,80.10,NaN,94.0,NaN,2.7,NaN,297.1,NaN,5.2,NaN,NaN,0.899,NaN,177.0,NaN,NaN,NaN,2,1.5,003830,   NaN,186.4,     NaN,      NaN,NaN,2.2,NaN, NaN,0.271,NaN,NaN, NaN, NaN
20060223,003904,1649636,36.636700,-121.873700,NaN,11.660,33.480,38.120,  NaN,NaN,0.936, NaN, NaN,13.100, NaN,   NaN,11.80,1020.39,80.10,NaN,96.0,NaN,4.0,NaN,294.2,NaN,7.8,NaN,NaN,0.936,NaN,179.0,NaN,NaN,NaN,2,1.7,003900,   NaN,185.6,     NaN,      NaN,NaN,2.2,NaN, NaN,0.274,NaN,NaN, NaN, NaN
20060223,003934,1649666,36.636300,-121.873700,NaN,11.640,33.470,38.100,  NaN,NaN,0.937, NaN, NaN,13.100, NaN,   NaN,11.80,1020.36,80.90,NaN,106.0,NaN,3.6,NaN,303.6,NaN,7.0,NaN,NaN,0.937,NaN,182.0,NaN,NaN,NaN,2,1.6,003930,   NaN,184.9,     NaN,      NaN,NaN,2.2,NaN, NaN,0.278,NaN,NaN, NaN, NaN
20060223,004004,1649696,36.636200,-121.873700,NaN,11.630,33.470,38.080,  NaN,NaN,0.986, NaN, NaN,13.100, NaN,   NaN,11.80,1020.30,81.00,NaN,108.0,NaN,2.8,NaN,307.2,NaN,5.4,NaN,NaN,0.986,NaN,183.0,NaN,NaN,NaN,2,1.6,004000,   NaN,182.8,     NaN,      NaN,NaN,2.1,NaN, NaN,0.281,NaN,NaN, NaN, NaN